FW5349 Weather Reports


time (UTC)temp
F
wind
direction
speed
knots
gust
knots
rain 1hr
in
rain 24hr
in
rain mn
in
humidity
%
barometer
mb
20260502163028 60 271 7.8 13.0 0.01 0.46 0.10 40 1013.9
20260502161525 59 219 5.2 12.2 0.01 0.46 0.10 46 1013.7
20260502160123 58 318 4.3 13.0 0.01 0.46 0.10 42 1013.6
20260502151516 56 208 2.6 9.6 0.01 0.51 0.09 52 1013.8
20260502130103 50 306 4.3 9.6 0.00 0.83 0.08 71 1013.4
20260502123046 48 316 4.3 9.6 0.01 0.85 0.08 76 1013.3
20260502121542 48 297 2.6 8.7 0.01 0.85 0.08 79 1013.1
20260502114539 45 264 3.5 9.6 0.00 0.84 0.07 85 1012.9
20260502113041 44 278 5.2 8.7 0.01 0.84 0.07 87 1012.8
20260502111532 44 262 6.1 8.7 0.01 0.84 0.07 88 1012.6
20260502110034 43 277 2.6 7.0 0.01 0.84 0.07 89 1012.6
20260502104527 43 277 2.6 7.0 0.01 0.85 0.07 90 1012.4
20260502103053 42 269 1.7 7.0 0.01 0.84 0.06 90 1011.9
20260502101521 42 271 3.5 8.7 0.01 0.84 0.06 91 1011.9
20260502091511 41 303 1.7 4.3 0.00 0.85 0.06 91 1010.7
20260502080105 41 271 0.0 3.5 0.01 0.93 0.05 91 1009.9
20260502070056 43 260 2.6 6.1 0.01 0.99 0.04 91 1009.8
20260502064553 43 270 2.6 5.2 0.01 0.99 0.04 92 1009.5
20260502063055 43 281 1.7 6.1 0.01 0.99 0.04 92 1009.4
20260502061546 44 291 1.7 5.2 0.01 0.98 0.03 92 1009.2
20260502060044 44 298 1.7 3.5 0.01 0.98 0.03 92 1009.1
20260502054553 44 254 0.9 4.3 0.02 0.98 0.03 92 1009.0
20260502053046 45 252 0.9 5.2 0.02 0.98 0.03 92 1008.9
20260502051538 45 265 0.9 3.5 0.01 0.98 0.02 92 1008.8
20260502050036 45 265 0.9 3.5 0.02 0.98 0.02 92 1008.7
20260502044536 46 302 0.0 2.6 0.01 0.97 0.02 92 1008.4
20260502043033 46 307 0.9 3.5 0.01 0.97 0.02 93 1008.4
20260502041535 46 288 0.9 3.5 0.02 0.97 0.02 93 1008.3
20260502040032 46 283 2.6 6.1 0.01 0.96 0.01 93 1008.2
20260502034529 46 281 3.5 6.1 0.01 0.96 0.01 93 1008.0
20260502033036 46 241 1.7 3.5 0.02 0.96 0.01 93 1007.9
20260502031524 45 281 0.0 1.7 0.01 0.95 0.00 93 1007.9
20260502030022 45 281 0.0 1.7 0.02 0.95 0.00 93 1007.8
20260502024522 45 281 0.0 0.0 0.02 0.95 0.95 93 1007.9
20260502023022 45 281 0.0 0.0 0.02 0.94 0.94 92 1007.9
20260502021520 45 281 0.0 0.0 0.02 0.94 0.94 92 1007.9
20260502020020 45 281 0.0 0.9 0.02 0.94 0.94 92 1007.7
20260502014520 46 281 0.0 1.7 0.02 0.94 0.94 92 1007.4
20260502013020 46 281 0.0 1.7 0.02 0.93 0.93 92 1007.4
20260502011519 47 281 0.0 1.7 0.02 0.93 0.93 92 1007.2
20260502010024 47 281 0.0 1.7 0.02 0.92 0.92 92 1007.2
20260502004518 47 281 0.9 1.7 0.02 0.92 0.92 92 1007.0
20260502003018 47 281 0.0 1.7 0.02 0.91 0.91 92 1006.7
20260502001513 48 281 0.9 2.6 0.02 0.91 0.91 93 1006.4
20260502000010 47 135 0.0 1.7 0.02 0.91 0.91 93 1006.1
20260501234509 47 135 0.0 1.7 0.02 0.91 0.91 93 1005.8
20260501233009 47 135 0.0 0.0 0.02 0.90 0.90 93 1005.7
20260501231508 47 135 0.0 0.0 0.02 0.90 0.90 93 1005.5
20260501230008 47 135 0.0 1.7 0.02 0.89 0.89 92 1005.4
20260501224507 47 135 0.0 1.7 0.02 0.88 0.88 92 1005.0
20260501223021 47 135 0.0 0.9 0.03 0.88 0.88 92 1004.8
20260501221506 47 135 0.0 1.7 0.03 0.87 0.87 92 1004.9
20260501220006 47 135 0.0 1.7 0.03 0.87 0.87 92 1004.8
20260501214514 47 158 0.0 2.6 0.04 0.86 0.86 93 1004.7
20260501213004 47 71 0.0 1.7 0.04 0.85 0.85 93 1004.7
20260501211505 47 71 0.9 2.6 0.04 0.84 0.84 93 1004.6
20260501210003 47 98 0.9 5.2 0.05 0.83 0.83 92 1004.3
20260501204505 47 121 1.7 5.2 0.04 0.82 0.82 92 1004.8
20260501203004 47 74 1.7 6.1 0.05 0.81 0.81 92 1004.7
20260501201601 47 146 0.9 3.5 0.05 0.80 0.80 93 1004.6
20260501200059 47 92 1.7 6.1 0.04 0.79 0.79 93 1004.3
20260501194559 46 108 1.7 4.3 0.05 0.78 0.78 93 1004.3
20260501193058 46 62 1.7 7.0 0.05 0.77 0.77 93 1004.3
20260501191555 46 96 3.5 8.7 0.05 0.76 0.76 92 1004.4
20260501190056 46 89 2.6 7.0 0.05 0.75 0.75 92 1004.7
20260501184554 47 99 4.3 7.8 0.05 0.73 0.73 92 1004.6
20260501183050 47 88 2.6 4.3 0.05 0.72 0.72 93 1005.0
20260501181554 47 82 0.9 3.5 0.04 0.71 0.71 93 1005.3
20260501180056 46 78 1.7 3.5 0.05 0.70 0.70 93 1005.5
20260501174543 47 116 0.9 2.6 0.05 0.69 0.69 93 1005.7